Regional Weather Roundup
Issued by NWS

Home | Current Version | Previous Version | Graphics & Text | Print | Product List | Glossary On
Versions: 1 2 3 4 5 6 7 8 9 10 11 12 13 14 15 16 17 18 19 20 21 22 23 24 25 26 27 28 29 30 31 32 33 34 35 36 37 38 39 40 41 42
000
ASUS45 KBOU 260907
RWRCO

WEATHER ROUNDUP FOR COLORADO
NATIONAL WEATHER SERVICE DENVER/BOULDER CO
200 AM MST FRI DEC 26 2014

NOTE: "FAIR" INDICATES FEW OR NO CLOUDS BELOW 12000 FEET WITH NO
SIGNIFICANT WEATHER AND/OR OBSTRUCTIONS TO VISIBILITY.

COZ001>005-013-030-031-261000-
...NORTHWEST COLORADO...

CITY           SKY/WX    TMP DP  RH WIND       PRES   REMARKS
CRAIG          CLOUDY    20  16  84 W8        29.70R WCI  10
HAYDEN         CLOUDY    19  16  86 NW5       29.67R WCI  13
MEEKER         LGT SNOW  21  16  81 W5        29.68R WCI  15
MOUNT WERNER   NOT AVBL
STEAMBOAT SPGS NOT AVBL
WALDEN         NOT AVBL
$$

COZ006>008-011-261000-
...WEST CENTRAL VALLEYS...

CITY           SKY/WX    TMP DP  RH WIND       PRES   REMARKS
GRAND JUNCTION FLURRIES  25  25 100 W5        29.72R WCI  19
MONTROSE       CLOUDY    26  23  88 N3        29.71R
EAGLE          CLOUDY    21  21 100 CALM      29.67R
RIFLE          CLOUDY    26  22  84 CALM      29.69S
DELTA          CLOUDY    26  24  91 CALM      29.72R
NUCLA          CLOUDY    21  19  93 CALM      29.73R
$$

COZ017>023-064>068-261000-
...SOUTHWEST COLORADO...

CITY           SKY/WX    TMP DP  RH WIND       PRES   REMARKS
DURANGO        FLURRIES  22  20  92 NW5       29.67S WCI  16
CORTEZ         CLOUDY    17  14  88 E3        29.69R
PAGOSA SPRINGS CLOUDY    20  20  99 CALM      29.66S
TELLURIDE      PTCLDY    14   8  75 CALM      29.62R
WOLF CREEK PAS NOT AVBL
$$

COZ009-010-012-014-032>034-037-058>063-261000-
...CENTRAL COLORADO...

CITY           SKY/WX    TMP DP  RH WIND       PRES   REMARKS
ASPEN          LGT SNOW  21  18  88 N5        29.60S FOG     WCI  15
BUENA VISTA    LGT SNOW  18  14  83 NE5       29.67R VSB 1   WCI  11
COPPER MTN     NOT AVBL
BERTHOUD PASS  NOT AVBL
COTTONWOOD PAS NOT AVBL
GUNNISON       CLOUDY     7   5  92 CALM      29.67R
KREMMLING      NOT AVBL
LEADVILLE      CLOUDY    10   4  76 CALM      29.57R
SALIDA         CLOUDY    23  21  93 SE14      29.73R VSB 3/4 WCI  10
SUNLIGHT       NOT AVBL
WILKERSON PASS NOT AVBL
$$

COZ069>075-261000-
...SAN LUIS VALLEY/SANGRE DE CRISTO MOUNTAINS...

CITY           SKY/WX    TMP DP  RH WIND       PRES   REMARKS
ALAMOSA        MOCLDY    14  11  87 S9        29.65S WCI   2
LA VETA PASS   NOT AVBL
SAGUACHE       NOT AVBL
$$

COZ035-036-038>040-261000-
...NORTHERN COLORADO FRONT RANGE...

CITY           SKY/WX    TMP DP  RH WIND       PRES   REMARKS
DENVER INTL AP LGT SNOW  18  16  92 N9        29.87R WCI   7
DMNS CITY PARK   N/A     19  17  93 NE7       29.89R WCI   9
AURORA         FLURRIES  17  17  99 N8        29.87R WCI   7
FRONT RANGE AP NOT AVBL
ERIE MUNI ARPT NOT AVBL
BOULDER MUN AP NOT AVBL
CENTENNIAL     LGT SNOW  17  15  92 NE7       29.85R FOG     WCI   8
BROOMFIELD     NOT AVBL
FORT COLLINS   CLOUDY    19  14  79 N9        29.90R WCI   9
LONGMONT       NOT AVBL
$$

COZ041-046-047-076>085-087-088-261000-
...PIKES PEAK/PALMER DIVIDE AND SOUTHERN FOOTHILLS...

CITY           SKY/WX    TMP DP  RH WIND       PRES   REMARKS
COLO. SPRINGS  LGT SNOW  21  15  78 NW21      29.77S WCI   5
A. F. ACADEMY  FLURRIES  18  12  79 NW18      29.78R WCI   2
ELLICOTT       NOT AVBL
FALCON         NOT AVBL
FORT CARSON    LGT SNOW  21  17  83 N28G33    29.75F WCI   4
LIMON          CLOUDY    18  16  92 N16G26    29.83R WCI   3
MONUMENT HILL  NOT AVBL
TRINIDAD       LGT SNOW  24  21  88 N13       29.79R FOG     WCI  12
$$

COZ042>045-048>051-090-091-261000-
...NORTHEAST COLORADO...

CITY           SKY/WX    TMP DP  RH WIND       PRES   REMARKS
GREELEY ARPT   CLOUDY    19  10  68 N5        29.90R WCI  13
AKRON          CLOUDY    19  17  92 N16       29.87R WCI   4
BURLINGTON     CLOUDY    25  22  88 N21G28    29.84R WCI  11
WRAY           CLOUDY    25  23  90 N12       29.91R WCI  14
STERLING       NOT AVBL
HOLYOKE        NOT AVBL
FORT MORGAN    FLURRIES  20  17  88 N7        29.91R WCI  11
$$

COZ086-089-092>099-261000-
...SOUTHEAST COLORADO...

CITY           SKY/WX    TMP DP  RH WIND       PRES   REMARKS
PUEBLO         CLOUDY    27  17  66 E9        29.83R WCI  18
LA JUNTA       LGT SNOW  28  24  85 N13       29.84R FOG     WCI  17
LAMAR          CLOUDY    29  22  75 NE16      29.81S WCI  17
SPRINGFIELD      N/A     26  24  92 N16       29.78R WCI  14
$$


USA.gov is the U.S. government's official web portal to all federal, state and local government web resources and services.